Location: Area 52 Observatory
(34.2620°N, 119.2590°W)
Time: 14:51:01
(UTC-07:00)

Tiangong 2 - Pass Details

Date: 19 March 2019
Orbit: 378 x 390 km, 42.8° (Epoch: 23 April)

Event Time Altitude Azimuth Distance (km) Brightness Sun altitude
Exits shadow 05:10:13 18° 14° (NNE) 1,039 3.5 -23.7°
Drops below altitude 10° 05:12:09 10° 52° (NE) 1,404 4.8 -23.3°
Sets 05:14:41 0° 72° (ENE) 2,260 6.5 -22.8°
